Showing default

BRO-16, 62654

Orbit data source: Space-Track

BRO-16, 62654 is a payload satellite owned by Unseen Labs (FR) in SSO that was launched on Tue, 14 Jan 2025 UTC via an FALCON 9 launch vehicle from the Air Force Western Test Range (AFWTR). Payload-class satellites include a variety of spacecraft equipped with specific instruments for various scientific and technological missions. These include communications satellites like Starlink; space stations such as the ISS; scientific satellites like the Hubble; Earth observation satellites from companies like Planet Labs, Umbra, and HawkEye 360; GPS; miniature CubeSats for education and research; and military/defense satellites.

Loading next visibility...
Identifier
62654, 2025-009AX
Orbit
SSO
Country
Flag of FRFR
Related business
Manufacturer
GOMSpace
Mission
Operational Commercial Sigint
Bus & Motor
CUBESAT 8U, Unknown motor
Mass
15 kg wet, ~15 kg dry
Launch date (UTC)
2025-01-14 (2 years ago)
Launch vehicle
FALCON 9
Launch site
Air Force Western Test Range (AFWTR)
Object type
Payload
Rocket body
Debris
Shape & HBR
Box, 0.6 m
Radar Cross Section
0.100 m², Medium (>0.1 m² and < 1m²)

Expand to show TLE details & history
Last TLE update: 11 hours ago

TLE from 11 hours ago
0 BRO-16
1 62654U 25009AX  26238.45732839  .00003407  00000-0  14198-3 0  9991
2 62654  97.4026 318.0819 0003338  73.9174 286.2430 15.24386322 89504
Epoch: 2026-08-26T10:58Z
TLE epoch observation values (Epoch: 2026-08-26T10:58:33.172Z)
Latitude
-0.00013°
Longitude
178.73365°
Altitude
495.084 km
Speed
7.618 km/s
True Right ascension
21h 12m 19s
True Declination
0° 00' 00"
Sunlit
Object was in full shadow at epoch
Visualization orbit readout
Latitude
Unknown
Longitude
Unknown
Altitude
Unknown
Speed
Unknown
Apparent Right ascension
Unknown
Apparent Declination
Unknown
Sunlit
N/A
Visualization observer readout
Local Sidereal Time
13:12:16
Azimuth
Unknown
Elevation
Unknown
Doppler factor
Unknown
Orbital elements
Apogee altitude
491.881 km
Perigee altitude
487.296 km
Semi-major axis
6,867.726 km
Eccentricity
0.00033
Inclination
97.4026°
RAAN
318.0819°
Arg. of periapsis
73.9174°
True anomaly
286.20627°
Mean anomaly
286.243°
Eccentric anomaly
286.22464°
Mean motion
3.8135 °/min
Orbital period
94.4 mins
BSTAR
0.00014198
Loading maneuver chart data...
Computing Atmospheric mass density...
Loading historical data...
Loading historical data...
Loading historical data...
Loading historical data...
Loading historical data...
Loading historical data...
Loading historical data...

Documentation

Showing up to 5 results
|